| time (UTC) | temp F | wind direction | speed knots | gust knots | rain 1hr in | rain 24hr in | rain mn in | humidity % | barometer mb |
| 20260510130032 | 65 | 41 | 0.9 | 2.6 | 0.00 | 0.91 | 0.00 | 97 | 1017.3 |
| 20260510124518 | 64 | 88 | 0.0 | 0.9 | 0.00 | 1.04 | 0.00 | 97 | 1017.0 |
| 20260510123020 | 63 | 89 | 0.0 | 0.9 | 0.00 | 1.34 | 0.00 | 97 | 1016.8 |
| 20260510121526 | 63 | 88 | 0.0 | 1.7 | 0.00 | 1.62 | 0.00 | 97 | 1016.6 |
| 20260510120032 | 62 | 175 | 0.0 | 0.0 | 0.00 | 1.76 | 0.00 | 97 | 1016.1 |
| 20260510114530 | 62 | 175 | 0.0 | 0.0 | 0.00 | 1.88 | 0.00 | 97 | 1015.9 |
| 20260510113028 | 61 | 175 | 0.0 | 0.0 | 0.00 | 1.99 | 0.00 | 97 | 1015.6 |
| 20260510111503 | 61 | 175 | 0.0 | 0.0 | 0.00 | 2.01 | 0.00 | 97 | 1015.2 |
| 20260510110010 | 61 | 175 | 0.0 | 0.0 | 0.00 | 2.06 | 0.00 | 97 | 1015.0 |
| 20260510104513 | 61 | 175 | 0.0 | 0.0 | 0.00 | 2.06 | 0.00 | 97 | 1014.7 |
| 20260510103018 | 62 | 175 | 0.0 | 0.0 | 0.00 | 2.06 | 0.00 | 97 | 1014.6 |
| 20260510101525 | 62 | 175 | 0.0 | 0.0 | 0.00 | 2.06 | 0.00 | 97 | 1014.4 |
| 20260510100005 | 62 | 175 | 0.0 | 0.0 | 0.00 | 2.06 | 0.00 | 97 | 1014.5 |
| 20260510094508 | 62 | 175 | 0.0 | 0.0 | 0.00 | 2.06 | 0.00 | 97 | 1014.3 |
| 20260510093016 | 62 | 175 | 0.0 | 0.0 | 0.00 | 2.06 | 0.00 | 97 | 1014.3 |
| 20260510091540 | 62 | 175 | 0.0 | 0.0 | 0.00 | 2.06 | 0.00 | 97 | 1014.2 |
| 20260510090022 | 63 | 175 | 0.0 | 0.0 | 0.00 | 2.06 | 0.00 | 97 | 1014.2 |
| 20260510084507 | 63 | 175 | 0.0 | 0.0 | 0.00 | 2.06 | 0.00 | 97 | 1014.1 |
| 20260510083015 | 63 | 175 | 0.0 | 0.0 | 0.00 | 2.06 | 0.00 | 97 | 1014.1 |
| 20260510081529 | 64 | 175 | 0.0 | 0.0 | 0.00 | 2.06 | 0.00 | 97 | 1014.1 |
| 20260510080022 | 64 | 175 | 0.0 | 0.0 | 0.00 | 2.07 | 0.00 | 97 | 1014.0 |
| 20260510074524 | 64 | 175 | 0.0 | 0.0 | 0.00 | 2.07 | 0.00 | 97 | 1014.0 |
| 20260510073011 | 64 | 175 | 0.0 | 0.0 | 0.00 | 2.07 | 0.00 | 97 | 1013.7 |
| 20260510071517 | 64 | 175 | 0.0 | 0.0 | 0.00 | 2.07 | 0.00 | 97 | 1013.5 |
| 20260510070024 | 65 | 175 | 0.0 | 0.0 | 0.00 | 2.07 | 0.00 | 97 | 1013.6 |
| 20260510064546 | 65 | 175 | 0.0 | 0.0 | 0.00 | 2.07 | 0.00 | 97 | 1013.9 |
| 20260510063038 | 65 | 175 | 0.0 | 0.0 | 0.00 | 2.07 | 0.00 | 97 | 1014.0 |
| 20260510061519 | 65 | 175 | 0.0 | 0.0 | 0.00 | 2.07 | 0.00 | 97 | 1013.9 |
| 20260510060028 | 65 | 174 | 0.0 | 0.0 | 0.00 | 2.07 | 0.00 | 97 | 1014.0 |
| 20260510054524 | 65 | 120 | 0.0 | 0.9 | 0.00 | 2.08 | 0.00 | 97 | 1013.7 |
| 20260510053027 | 65 | 115 | 0.0 | 0.9 | 0.00 | 2.08 | 0.00 | 97 | 1013.9 |
| 20260510051528 | 65 | 250 | 0.0 | 0.9 | 0.00 | 2.08 | 0.00 | 97 | 1014.1 |
| 20260510050016 | 65 | 250 | 0.0 | 0.9 | 0.00 | 2.08 | 0.00 | 97 | 1014.2 |
| 20260510044518 | 65 | 37 | 0.0 | 0.9 | 0.00 | 2.08 | 2.08 | 97 | 1013.9 |
| 20260510043022 | 65 | 38 | 1.7 | 2.6 | 0.00 | 2.08 | 2.08 | 97 | 1013.5 |
| 20260510041525 | 65 | 63 | 0.9 | 0.9 | 0.00 | 2.08 | 2.08 | 97 | 1014.1 |
| 20260510040027 | 65 | 128 | 0.0 | 0.9 | 0.00 | 2.08 | 2.08 | 97 | 1014.3 |
| 20260510034516 | 65 | 128 | 0.0 | 0.9 | 0.00 | 2.08 | 2.08 | 97 | 1014.4 |
| 20260510033021 | 65 | 100 | 0.0 | 0.9 | 0.00 | 2.08 | 2.08 | 97 | 1014.6 |
| 20260510031532 | 65 | 92 | 0.0 | 0.9 | 0.00 | 2.08 | 2.08 | 97 | 1014.7 |
| 20260510030027 | 65 | 91 | 0.0 | 0.9 | 0.00 | 2.08 | 2.08 | 96 | 1014.6 |
| 20260510024533 | 65 | 91 | 0.0 | 0.9 | 0.00 | 2.08 | 2.08 | 96 | 1014.2 |
| 20260510023016 | 65 | 82 | 1.7 | 2.6 | 0.00 | 2.08 | 2.08 | 96 | 1014.0 |
| 20260510021522 | 65 | 89 | 0.9 | 1.7 | 0.00 | 2.08 | 2.08 | 96 | 1014.0 |
| 20260510020028 | 65 | 330 | 0.0 | 1.7 | 0.00 | 2.08 | 2.08 | 96 | 1014.1 |
| 20260510014507 | 65 | 99 | 0.0 | 2.6 | 0.01 | 2.08 | 2.08 | 96 | 1014.2 |
| 20260510013020 | 65 | 243 | 0.0 | 1.7 | 0.02 | 2.08 | 2.08 | 96 | 1013.9 |
| 20260510011522 | 65 | 203 | 0.9 | 2.6 | 0.02 | 2.08 | 2.08 | 96 | 1013.8 |
| 20260510010024 | 65 | 82 | 0.0 | 2.6 | 0.05 | 2.08 | 2.08 | 96 | 1012.5 |
| 20260510004530 | 66 | 233 | 0.9 | 2.6 | 0.06 | 2.08 | 2.07 | 96 | 1012.6 |
| 20260510003013 | 66 | 348 | 0.0 | 0.9 | 0.06 | 2.08 | 2.06 | 96 | 1013.3 |
| 20260510001516 | 66 | 174 | 0.0 | 1.7 | 0.06 | 2.09 | 2.06 | 96 | 1013.6 |
| 20260510000019 | 66 | 223 | 0.0 | 1.7 | 0.04 | 2.08 | 2.03 | 96 | 1013.4 |
| 20260509234536 | 66 | 245 | 0.0 | 0.9 | 0.02 | 2.06 | 2.01 | 95 | 1013.1 |
| 20260509233011 | 66 | 245 | 0.0 | 0.9 | 0.01 | 2.05 | 2.00 | 95 | 1012.9 |
| 20260509231514 | 66 | 245 | 0.0 | 0.9 | 0.01 | 2.06 | 2.00 | 94 | 1013.0 |
| 20260509230021 | 66 | 229 | 0.0 | 1.7 | 0.00 | 2.07 | 1.99 | 94 | 1013.3 |
| 20260509224525 | 67 | 243 | 0.0 | 3.5 | 0.00 | 2.09 | 1.99 | 94 | 1013.3 |
| 20260509223032 | 67 | 246 | 0.9 | 3.5 | 0.00 | 2.13 | 1.99 | 94 | 1013.2 |
| 20260509221512 | 67 | 58 | 0.0 | 0.9 | 0.00 | 2.15 | 1.99 | 95 | 1012.6 |
| 20260509220019 | 67 | 287 | 0.0 | 0.9 | 0.00 | 2.17 | 1.99 | 95 | 1012.5 |
| 20260509214521 | 67 | 287 | 0.0 | 0.9 | 0.00 | 2.18 | 1.99 | 95 | 1012.4 |
| 20260509213027 | 67 | 240 | 0.0 | 1.7 | 0.00 | 2.22 | 1.99 | 94 | 1012.1 |
| 20260509211526 | 67 | 349 | 0.0 | 0.9 | 0.01 | 2.27 | 1.99 | 95 | 1011.9 |
| 20260509210014 | 67 | 122 | 0.0 | 1.7 | 0.01 | 2.30 | 1.99 | 95 | 1011.7 |
| 20260509204518 | 66 | 279 | 0.0 | 0.9 | 0.01 | 2.35 | 1.99 | 95 | 1012.4 |
| 20260509203034 | 66 | 223 | 0.0 | 1.7 | 0.01 | 2.42 | 1.99 | 95 | 1012.5 |
| 20260509201526 | 66 | 209 | 2.6 | 4.3 | 0.00 | 2.45 | 1.98 | 94 | 1013.1 |
| 20260509200026 | 66 | 227 | 1.7 | 4.3 | 0.00 | 2.50 | 1.98 | 94 | 1012.9 |
| 20260509194517 | 66 | 250 | 1.7 | 3.5 | 0.00 | 2.55 | 1.98 | 94 | 1013.1 |
| 20260509193022 | 66 | 227 | 0.9 | 3.5 | 0.00 | 2.60 | 1.98 | 94 | 1012.7 |
| 20260509191524 | 66 | 230 | 0.9 | 2.6 | 0.00 | 2.66 | 1.98 | 94 | 1013.0 |
| 20260509190032 | 66 | 283 | 0.0 | 1.7 | 0.01 | 2.82 | 1.98 | 94 | 1013.0 |
| 20260509184538 | 66 | 249 | 0.9 | 4.3 | 0.01 | 2.97 | 1.98 | 93 | 1013.0 |
| 20260509183029 | 66 | 231 | 0.0 | 4.3 | 0.01 | 2.98 | 1.98 | 94 | 1013.0 |
| 20260509181523 | 66 | 221 | 0.9 | 1.7 | 0.01 | 3.01 | 1.98 | 94 | 1013.1 |
| 20260509180027 | 66 | 243 | 0.9 | 4.3 | 0.00 | 3.00 | 1.97 | 94 | 1013.2 |
| 20260509174528 | 66 | 234 | 0.0 | 2.6 | 0.02 | 3.00 | 1.97 | 95 | 1013.1 |
| 20260509173030 | 65 | 229 | 0.0 | 0.9 | 0.02 | 3.00 | 1.97 | 95 | 1013.0 |
| 20260509171529 | 65 | 247 | 0.0 | 2.6 | 0.03 | 3.00 | 1.97 | 96 | 1013.0 |
| 20260509170006 | 64 | 26 | 0.0 | 2.6 | 0.04 | 3.00 | 1.97 | 96 | 1012.7 |
| 20260509164507 | 64 | 75 | 0.9 | 4.3 | 0.04 | 2.98 | 1.95 | 96 | 1013.0 |
| 20260509163016 | 64 | 180 | 1.7 | 3.5 | 0.07 | 3.06 | 1.95 | 96 | 1013.6 |
| 20260509161521 | 64 | 74 | 0.9 | 3.5 | 0.12 | 3.94 | 1.94 | 96 | 1013.2 |
| 20260509160024 | 63 | 248 | 2.6 | 4.3 | 0.16 | 3.98 | 1.93 | 96 | 1014.1 |
| 20260509154504 | 63 | 117 | 1.7 | 4.3 | 0.20 | 4.03 | 1.91 | 96 | 1013.1 |
| 20260509153018 | 63 | 24 | 0.9 | 5.2 | 0.27 | 4.55 | 1.88 | 96 | 1012.9 |
| 20260509151515 | 63 | 84 | 0.9 | 3.5 | 0.28 | 4.51 | 1.82 | 96 | 1013.7 |
| 20260509150020 | 63 | 235 | 0.0 | 3.5 | 0.30 | 4.46 | 1.77 | 96 | 1013.6 |
| 20260509144522 | 63 | 70 | 1.7 | 2.6 | 0.30 | 4.40 | 1.71 | 96 | 1014.0 |
| 20260509143006 | 63 | 84 | 0.9 | 3.5 | 0.28 | 4.30 | 1.61 | 96 | 1013.8 |
| 20260509141522 | 63 | 92 | 1.7 | 2.6 | 0.28 | 4.23 | 1.54 | 96 | 1013.7 |
| 20260509140016 | 63 | 60 | 0.0 | 5.2 | 0.31 | 4.16 | 1.47 | 96 | 1013.9 |
| 20260509134521 | 63 | 127 | 0.0 | 3.5 | 0.37 | 4.10 | 1.41 | 96 | 1014.4 |
| 20260509133026 | 63 | 91 | 2.6 | 5.2 | 0.58 | 4.02 | 1.33 | 96 | 1014.5 |
| 20260509131511 | 63 | 69 | 0.9 | 3.5 | 0.80 | 3.95 | 1.26 | 96 | 1014.2 |